EW6448 Weather Reports


time (UTC)temp
C
wind
direction
speed
KPH
gust
KPH
rain 1hr
cm
rain 24hr
cm
rain mn
cm
humidity
%
barometer
mb
20260906083047 20 280 0.0 0.0 0.00 0.03 0.00 1 1012.2
20260906081543 20 280 0.0 0.0 0.00 0.03 0.00 1 1012.3
20260906080040 20 280 0.0 0.0 0.00 0.03 0.00 1 1012.2
20260906074543 20 280 0.0 0.0 0.00 0.03 0.00 1 1012.1
20260906073029 21 280 0.0 0.0 0.00 0.03 0.00 1 1012.3
20260906071524 21 280 0.0 0.0 0.00 0.03 0.00 1 1012.5
20260906070021 21 280 0.0 0.0 0.00 0.03 0.00 1 1012.5
20260906064516 21 280 0.0 0.0 0.00 0.03 0.00 1 1012.3
20260906063012 21 280 0.0 0.0 0.00 0.03 0.00 1 1012.4
20260906061508 21 280 0.0 0.0 0.00 0.03 0.00 1 1012.6
20260906060007 21 280 0.0 0.0 0.00 0.03 0.00 1 1012.7
20260906054604 21 280 0.0 0.0 0.00 0.03 0.00 1 1012.9
20260906053107 21 280 0.0 0.0 0.00 0.03 0.00 1 1012.9
20260906051550 21 280 0.0 0.0 0.00 0.03 0.00 1 1013.1
20260906050046 21 280 0.0 0.0 0.00 0.03 0.00 1 1013.2
20260906044541 21 280 0.0 0.0 0.00 0.03 0.00 1 1013.3
20260906043038 21 280 0.0 0.0 0.00 0.03 0.00 1 1012.9
20260906041545 22 280 0.0 0.0 0.00 0.03 0.00 1 1012.9
20260906040028 22 280 0.0 0.0 0.00 0.03 0.00 1 1013.0
20260906034524 22 280 0.0 0.0 0.00 0.03 0.03 1 1013.0
20260906033020 22 280 0.0 0.0 0.00 0.03 0.03 1 1013.2
20260906031515 22 280 0.0 0.0 0.00 0.03 0.03 1 1013.4
20260906030011 22 280 0.0 0.0 0.00 0.03 0.03 1 1013.2
20260906024506 22 280 0.0 0.0 0.00 0.03 0.03 1 1013.0
20260906023002 22 280 0.0 0.0 0.00 0.03 0.03 1 1013.2
20260906021559 23 280 0.0 0.0 0.00 0.03 0.03 1 1013.1
20260906020054 23 280 0.0 0.0 0.00 0.03 0.03 1 1013.0
20260906014552 23 280 0.0 0.0 0.00 0.03 0.03 1 1012.7
20260906013045 23 280 0.0 0.0 0.00 0.03 0.03 1 1012.6
20260906011553 24 280 0.0 0.0 0.00 0.03 0.03 1 1012.5
20260906010058 24 280 0.0 0.0 0.00 0.03 0.03 4 1012.3
20260906004532 25 280 0.0 0.0 0.00 0.03 0.03 14 1012.2
20260906003028 25 280 0.0 0.0 0.00 0.03 0.03 28 1012.0
20260906001533 26 280 0.0 0.0 0.00 0.03 0.03 30 1011.8
20260906000019 26 280 0.0 0.0 0.00 0.03 0.03 35 1011.7
20260905234515 26 280 0.0 0.0 0.00 0.05 0.03 47 1011.4
20260905233012 27 280 0.0 0.0 0.00 0.05 0.03 49 1011.5
20260905230001 28 280 0.0 0.0 0.00 0.05 0.03 53 1011.5
20260905224559 29 280 0.0 0.0 0.00 0.05 0.03 59 1011.6
20260905223052 30 280 0.0 0.0 0.00 0.05 0.03 61 1011.8
20260905221553 30 280 0.0 0.0 0.00 0.05 0.03 60 1011.9
20260905220046 31 280 0.0 0.0 0.00 0.05 0.03 59 1011.8
20260905214539 30 280 0.0 0.0 0.00 0.05 0.03 59 1011.8
20260905213040 30 280 0.0 0.0 0.00 0.05 0.03 60 1011.8
20260905211540 30 280 0.0 0.0 0.00 0.05 0.03 59 1011.5
20260905210026 30 280 0.0 0.0 0.00 0.05 0.03 59 1011.7
20260905204525 30 280 0.0 0.0 0.00 0.05 0.03 58 1011.8
20260905203033 29 270 0.0 0.0 0.00 0.05 0.03 60 1011.8
20260905201518 28 270 0.0 0.0 0.00 0.05 0.03 58 1012.0
20260905200009 28 269 0.0 0.0 0.00 0.05 0.03 59 1012.1
20260905194504 28 269 0.0 0.0 0.00 0.05 0.03 58 1012.2
20260905193059 28 269 0.0 1.6 0.00 0.05 0.03 57 1012.7
20260905191555 27 269 0.0 0.0 0.00 0.05 0.03 54 1012.8
20260905190054 26 269 0.0 0.0 0.00 0.05 0.03 51 1013.1
20260905184549 25 269 0.0 0.0 0.00 0.05 0.03 46 1013.5
20260905183058 24 269 0.0 0.0 0.00 0.05 0.03 19 1013.9
20260905181539 22 269 0.0 0.0 0.00 0.05 0.03 1 1014.1
20260905180034 21 269 0.0 0.0 0.00 0.05 0.03 1 1014.8
20260905174529 21 269 0.0 0.0 0.00 0.05 0.03 1 1015.3
20260905173025 21 269 0.0 0.0 0.00 0.05 0.03 1 1015.5
20260905171521 22 269 0.0 0.0 0.03 0.05 0.03 1 1015.7
20260905170017 22 269 0.0 0.0 0.03 0.05 0.03 1 1015.5
20260905164514 22 269 0.0 0.0 0.03 0.05 0.03 1 1015.5
20260905163007 23 282 0.0 0.0 0.03 0.05 0.03 14 1015.6
20260905161506 25 282 0.0 9.7 0.00 0.03 0.00 39 1015.5
20260905160059 28 289 1.6 16.1 0.00 0.03 0.00 45 1015.0
20260905154554 29 280 0.0 0.0 0.00 0.03 0.00 40 1014.4
20260905153049 29 280 0.0 0.0 0.00 0.03 0.00 43 1014.8
20260905151549 28 280 0.0 0.0 0.00 0.03 0.00 29 1014.6
20260905150043 28 280 0.0 0.0 0.00 0.03 0.00 36 1014.5
20260905144538 28 280 0.0 0.0 0.00 0.03 0.00 41 1014.3
20260905143031 27 280 0.0 0.0 0.00 0.03 0.00 29 1014.4
20260905141528 27 280 0.0 0.0 0.00 0.03 0.00 16 1014.6
20260905140024 27 280 0.0 0.0 0.00 0.03 0.00 21 1014.8
20260905134527 26 280 0.0 0.0 0.00 0.03 0.00 3 1014.7
20260905133014 25 280 0.0 0.0 0.00 0.03 0.00 1 1014.8
20260905131513 22 280 0.0 0.0 0.00 0.03 0.00 1 1014.9
20260905130007 21 280 0.0 0.0 0.00 0.03 0.00 1 1015.0
20260905124506 21 280 0.0 0.0 0.00 0.03 0.00 1 1015.2
20260905123104 20 280 0.0 0.0 0.00 0.03 0.00 1 1015.2
20260905121554 20 280 0.0 0.0 0.00 0.03 0.00 1 1015.0
20260905120049 20 280 0.0 0.0 0.00 0.03 0.00 1 1014.9
20260905114547 20 280 0.0 0.0 0.00 0.03 0.00 1 1014.8
20260905113042 20 280 0.0 0.0 0.00 0.03 0.00 1 1014.7
20260905111537 20 280 0.0 0.0 0.00 0.03 0.00 1 1014.6
20260905110033 20 280 0.0 0.0 0.00 0.03 0.00 1 1014.4
20260905104527 20 280 0.0 0.0 0.00 0.03 0.00 1 1014.2
20260905103024 20 280 0.0 0.0 0.00 0.03 0.00 1 1014.1
20260905101518 20 280 0.0 0.0 0.00 0.03 0.00 1 1014.0
20260905100013 20 280 0.0 0.0 0.00 0.03 0.00 1 1013.9
20260905094510 20 280 0.0 0.0 0.00 0.03 0.00 1 1013.9
20260905093004 20 280 0.0 0.0 0.00 0.03 0.00 1 1013.9
20260905091501 20 280 0.0 0.0 0.00 0.03 0.00 1 1013.5
20260905090131 21 280 0.0 0.0 0.00 0.03 0.00 1 1013.6
20260905084552 21 280 0.0 0.0 0.00 0.03 0.00 1 1013.7